Погода Сумы

Хотите узнать прогноз погоды Сумы? Тогда Вам сюда: Погода Сумы

Поиск расширенной информации на нашем сайте:

Полезная информация:

Новости сайта



02.01.2020
Опубликован Долгосрочный прогноз погоды по городам России и ближнего зарубежья на январь 2020 года.
Карты: Прогноз на январь и февраль 2020 года, Сравнение прогнозируемой аномалии приземной температуры воздуха на январь 2020 года по разным моделям.




Погода Сумы - сегодня

Время (UTC), дата Ветер
(°,м/с) 
Видим.   Явления Облачность Т
(°С)
Тd
(°С)
f(%) Тe
(°С)
Pmin
(гПа)
dP
(гПа)
Po
(мм)
O2
(г/м3)
Тmin Tmax R s Состояние
почвы
06 05.04.20 300 (СЗ) 10 км    ясно 
+3.6 -4.2 57 +2  1029  1.1  755  301  -1.6         
09 05.04.20 320 (СЗ) 10 км    8/8 600 м 
[Sc]
+9 -3.3 42 +7  1028.8  0.2  755  295           
12 05.04.20 320 (СЗ) 10 км    4/4 1000 м 
[Sc]
+11.1 -4.9 32 +9  1027.7  -0.9  754  293           
15 05.04.20 310 (СЗ) 10 км    ясно 
+9.2 -7.7 29 +7  1027.6  -0.3  754  295           
18 05.04.20 320 (СЗ) 10 км    4/0 средняя 
[Ac trans]
+5.7 -9.2 33 +5  1030.1  2.2  756  299    +11.4       
21 05.04.20 360 (С) 10 км    ясно 
+2.6 -11.4 35 +2  1032.2  1.8  757  303           
00 06.04.20 290 (З) 10 км    ясно 
-1.6 -12.4 44 -3  1033.5  0.9  758  308           
03 06.04.20 320 (СЗ) 10 км    ясно 
-2.1 -10.2 54 -3  1034.3  0.8  758  309           
06 06.04.20 310 (СЗ) 10 км    ясно 
+3.2 -6.4 49 +2  1035  1.1  759  303  -3.5         
09 06.04.20 320 (СЗ) 10 км    ясно 
+9.5 -6.3 32 +8  1034.8  0.3  759  296           
12 06.04.20 320 (СЗ) 10 км    4/0 верхняя 
[Ci fib]
+12.2 -7 25 +11  1033.5  -1.1  758  293           
15 06.04.20 330 (СЗ) 10 км    3/0 верхняя 
[Ci fib]
+11.9 -5.2 30 +11  1032.7  -0.8  758  293           
18 06.04.20 320 (СЗ) 10 км    ясно 
+7.2 -3.1 48 +7  1034  0.9  758  298    +12.4       
21 06.04.20 300 (СЗ) 10 км    6/0 средняя 
[Ac trans]
+6.4 -2.1 55 +5  1034  758  299           
00 07.04.20 320 (СЗ) 10 км    3/0 средняя 
[Ac trans]
+3.1 -3.4 62 +3  1034.9  0.6  759  303           
03 07.04.20 320 (СЗ) 10 км    3/0 средняя 
[Ac trans]
+2.4 -3.3 66 +2  1036.1  1.1  760  304           
06 07.04.20 040 (СВ) 10 км    ясно 
+6.6 -1.8 55 +6  1037  1.2  761  299  +2.4         
09 07.04.20 020 (С) 10 км    3/0 верхняя 
[Ci fib]
+10.6 -2.3 40 +10  1036.6  761  295           
12 07.04.20 010 (С) 10 км    3/3 600 м 
[Sc]
+13.6 -2.4 33 +13  1035.2  -1.2  760  292           
15 07.04.20 040 (СВ) 10 км    3/0 
[Sc]
+12.9 -1.4 37 +14  1033.7  -1.5  759  292           
18 07.04.20 220 (ЮЗ) 10 км    ясно 
+7.7 -1.6 52 +8  1033.5  -0.6  758  297    +14.3       
21 07.04.20 200 (Ю) 10 км    ясно 
+5.5 -1.3 62 +4  1032.4  -1.2  757  299           
00 08.04.20 200 (Ю) 10 км    ясно 
+4.4 -1.1 67 +3  1030.8  -1.7  756  300           
03 08.04.20 210 (ЮЗ) 10 км    4/0 верхняя 
[Ci fib]
+4.9 -2.1 60 +3  1028.3  -2.4  754  299           
06 08.04.20 240 (ЮЗ) 10 км    ясно 
+11.5 +0.6 47 +10  1024.9  -2.8  752  291  +3.8         
Время (UTC), дата Ветер
(°,м/с) 
Видим.   Явления Облачность Т
(°С)
Тd
(°С)
f(%) Тe
(°С)
Pmin
(гПа)
dP
(гПа)
Po
(мм)
O2
(г/м3)
Тmin Tmax R s Состояние
почвы

Для получения пояснительной информации подведите курсор к названию столбца.

ПОГОДА Сумы - архив

Всё, что Вы хотите узнать о погоде Сумы - удобно и подробно!

Выберите нужную дату (начиная с 1 января 2019* года) и нажмите кнопку "Найти".
Будут отображены архивные сводки погоды по пункту Сумы, начиная с указанной даты.


Отображать данные в формате CSV (для использования в таблицах Excel)


Внимание! Наш архив погоды предназначен исключительно для личного некоммерческого использования в познавательных целях. Если Вам необходимы официальные справки о состоянии погоды (для производственных, юридических, коммерческих и т.п. целей), обращайтесь в органы Росгидромета.

*Примечание: данная дата относится к архиву по метеостанциям СССР (Россия, СНГ, Балтия).
Архив по метеостанциям Зарубежной Европы и Азии (кроме Китая) хранится 10 дней, по другим регионам земного шара (Китай, Африка, Америка, Австралия, Океания) - 1 день.

Сумы - район местоположения метеостанции


Название, широта, долгота, высота метеостанции:
Сумы 50.9°ш. 34.7°д. 181 м над ур. моря [Украина]

Дополнительная информация

В oтличие oт бoльшинства пoгoдных сайтoв мы публикуем пoдрoбную метеoинфoрмацию в детальнoм прoфессиoнальнoм фoрмате.

Характеристики температуры и влажнoсти вoздуха измеряются на высoте 2 м в тени вдали oт зданий и деревьев.
Скoрoсть ветра измеряется на высoте 10 м (на урoвне рoста челoвека скoрoсть ветра ниже в 1.5-2 раза). Если метеoстанция нахoдится в гoрoде или в лесу, тo скoрoсть ветра занижена на 2-4 м/с пo сравнению с oткрытым местoм. Скoрoсть ветра над акватoриями крупных рек и oзёр, а также на вершинах хoлмoв на 2-5 м/с выше, чем в oбычных услoвиях.
Атмoсфернoе давление в разных тoчках местнoсти мoжет значительнo oтличаться oт давления на метеoстанции, в зависимoсти oт услoвий рельефа (при пoдъёме на 10 м давление пoнижается примернo на 1 мм рт.ст.).